Location: Unspecified
(0.0000°N, 0.0000°E)
Time: 18:01:46
(UTC+00:00)

OTV 5 (USA 277) - Visible Passes

Search period start: 16 July 2018 00:00
Search period end: 26 July 2018 00:00
Orbit: 312 x 321 km, 54.5° (Epoch: 05 July)

Date Brightness Start Highest point End Pass type
(mag) Time Alt. Az. Time Alt. Az. Time Alt. Az.
17 Jul ? 18:38:05 10° WNW 18:40:25 26° WSW 18:42:46 10° S visible
20 Jul ? 04:54:06 20° SSE 04:55:20 28° ESE 04:57:43 10° ENE visible
21 Jul ? 05:08:53 31° WSW 05:09:42 41° WNW 05:12:15 10° NNE visible
